Location: The Stocker AstroScience Center
(25.7579°N, 80.3725°W)
Time: 01:56:39
(UTC-04:00)

ISS - All Passes

Search period start: 02 May 2016 00:00
Search period end: 12 May 2016 00:00
Orbit: 402 x 405 km, 51.6° (Epoch: 01 May)

Date Brightness Start Highest point End Pass type
(mag) Time Alt. Az. Time Alt. Az. Time Alt. Az.
02 May - 06:31:35 10° S 06:34:20 25° SE 06:37:05 10° ENE daylight
02 May - 08:08:35 10° W 08:10:45 16° NW 08:12:55 10° N daylight
02 May - 16:17:40 10° NW 16:20:50 51° SW 16:24:00 10° SSE daylight
03 May - 05:41:05 10° SE 05:42:01 11° SE 05:42:57 10° ESE visible
03 May - 07:15:10 10° WSW 07:18:10 34° NW 07:21:11 10° NNE daylight
03 May - 15:25:11 10° NNW 15:28:24 58° NE 15:31:36 10° SE daylight
04 May - 06:22:25 10° SW 06:25:40 88° NW 06:28:55 10° NE daylight
04 May - 14:33:06 10° NNW 14:35:52 25° NE 14:38:36 10° ESE daylight
04 May - 16:10:04 10° W 16:12:07 16° SW 16:14:09 10° SSW daylight
05 May - 05:30:16 10° SSW 05:33:14 34° SE 05:36:14 10° ENE visible
05 May - 07:08:06 10° WNW 07:09:46 13° NW 07:11:25 10° N daylight
05 May - 13:41:44 10° NNE 13:43:12 12° NE 13:44:40 10° ENE daylight
05 May - 15:16:42 10° WNW 15:19:44 37° SW 15:22:46 10° SSE daylight
06 May - 04:39:00 10° SSE 04:40:52 14° SE 04:42:45 10° E visible
06 May - 06:14:18 10° WSW 06:17:07 26° NW 06:19:55 10° NNE visible
06 May - 14:24:02 10° NW 14:27:18 81° NE 14:30:33 10° SE daylight
07 May - 05:21:20 10° SW 05:24:33 64° NW 05:27:47 10° NE visible
07 May - 13:31:47 10° NNW 13:34:45 31° NE 13:37:42 10° ESE daylight
07 May - 15:09:39 10° W 15:10:55 12° SW 15:12:12 10° SSW daylight
08 May - 04:28:56 10° SSW 04:32:04 46° SE 04:35:12 10° NE visible
08 May - 06:07:55 10° NW 06:08:41 11° NW 06:09:27 10° NNW visible
08 May - 12:40:04 10° N 12:42:06 15° NE 12:44:08 10° E daylight
08 May - 14:15:44 10° WNW 14:18:33 27° SW 14:21:22 10° S daylight
09 May - 03:37:16 10° S 03:39:39 19° SE 03:42:02 10° ENE visible
09 May - 05:13:25 10° W 05:15:58 21° NW 05:18:31 10° N visible
09 May - 13:22:51 10° NW 13:26:06 73° SW 13:29:20 10° SE daylight
10 May - 04:20:12 10° WSW 04:23:20 46° NW 04:26:30 10° NNE visible
10 May - 12:30:27 10° NNW 12:33:33 41° NE 12:36:39 10° ESE daylight
11 May - 03:27:35 10° SSW 03:30:48 65° SE 03:34:02 10° NE visible
11 May - 11:38:29 10° N 11:40:55 19° NE 11:43:19 10° E daylight
11 May - 13:14:44 10° WNW 13:17:15 21° SW 13:19:46 10° S daylight
